Regional Weather Roundup
Issued by NWS Bismarck, ND

Home | Current Version | Previous Version | Text Only | Print | Product List | Glossary On
Versions: 1 2 3 4 5 6 7 8 9 10 11 12 13 14 15 16 17 18 19 20 21 22 23 24 25 26 27 28 29 30 31 32 33 34 35 36 37 38 39 40 41 42 43 44 45 46 47 48 49 50
000
ASUS43 KBIS 190501
RWRBIS

NWR BROADCAST TEXT
NATIONAL WEATHER SERVICE BISMARCK ND
1200 AM CDT SUN APR 19 2015

NOTE: "FAIR" INDICATES FEW OR NO CLOUDS BELOW 12,000 FEET WITH NO
SIGNIFICANT WEATHER AND/OR OBSTRUCTIONS TO VISIBILITY.


CITY           SKY/WX    TMP DP  RH WIND       PRES   REMARKS
WILLISTON      MOCLDY    43  28  55 NW13      30.03S
MINOT          CLOUDY    46  37  71 NW18      29.92F
MINOT AFB      CLOUDY    46  43  86 NW18G29   29.92S
BISMARCK       LGT RAIN  48  46  93 NW22G29   29.91S
DICKINSON      CLOUDY    46  34  62 NW16      29.98R
GARRISON         N/A     47  42  83 N13       29.94S
HETTINGER ARPT CLOUDY    45  41  86 NW12      29.99S
JAMESTOWN      CLOUDY    51  44  77 NW23G30   29.80F
CARRINGTON     LGT RAIN  48  46  93 W8        29.89S
HAZEN          CLOUDY    46  39  76 N8        29.96S
OAKES            N/A     52  50  93 S13       29.82R
RUGBY            N/A    N/A N/A N/A NW15      29.87
STANLEY        MOCLDY    43  32  65 NW14G21   29.98S
$$

CITY           SKY/WX    TMP DP  RH WIND       PRES   REMARKS
GRAND FORKS    CLOUDY    57  31  37 SE6       29.80F
GRAND FORKS AF NOT AVBL
DEVILS LAKE    CLOUDY    54  37  54 W20G26    29.82F
FARGO          CLOUDY    61  40  45 S18       29.81S
CANDO          CLOUDY    50  37  62 NW14G20   29.83S
CAVALIER       FAIR      54  32  43 SE6       29.81S
GRAFTON        FAIR      55  28  35 MISG      29.81F
GWINNER          N/A     55  54  94 S10       29.83S
LANGDON        FAIR      50  30  46 W8        29.81F
ROLLA          CLOUDY    48  39  71 NW14      29.86F
WALHALLA       MOCLDY    57  32  38 SW8       29.80F
$$

CITY           SKY/WX    TMP DP  RH WIND       PRES   REMARKS
ABERDEEN       LGT RAIN  52  50  93 N7        29.79F
MOBRIDGE       RAIN      49  46  90 NW10      29.86R
BUFFALO          N/A     45  33  63 NW18      29.96R
RAPID CITY     LGT RAIN  45  42  89 N28G38    29.97R
GLASGOW        CLEAR     39  20  46 NW13      30.13S
SIDNEY         PTCLDY    39  25  56 W6        30.06S
WOLF POINT     CLEAR     39  22  50 NW12      30.11S
GLENDIVE       CLEAR     41  23  48 NW12      30.10R
MILES CITY     CLEAR     39  21  48 NW12      30.14R
BAKER          PTCLDY    43  25  49 NW17G23   30.07R
$$

CITY           SKY/WX    TMP DP  RH WIND       PRES   REMARKS
BILLINGS       PTCLDY    40  27  59 NW13      30.24R
GREAT FALLS    CLOUDY    39  29  67 N6        30.27S
$$



USA.gov is the U.S. government's official web portal to all federal, state and local government web resources and services.